Accueil
METAR-TAF:

METAR-TAF

Aéroports :

Payerne, Suisse

Aérodrome de Payerne

latitude: 46-49N, longitude: 006-57E, altitude: 490 m

Observation

Le bulletin a été fait il y a 45 minutes, à 23:50 UTC
Vent 11 kt de nord-est, variant entre nord/nord-est et est
Température -2°C
Humidité 80%
Pression 1011 hPa
Visibilité: 6000 m
Nuages fragmentés à une hauteur de 1900 ft

METAR: LSMP 232350Z AUTO 05011KT 020V080 6000NDV BKN019 M02/M05 Q1011 RMK

Heure: 01:35 (00:35 UTC)


TAF: absent

Observations et prévisions météorologiques de plus de 4000 aéroports (messages METAR et TAF).

Les stations disponibles sont représentées par des disques jaunes et rouges sur la carte.

Passer la souris dessus pour voir le nom de la station.

Cliquer dessus pour voir les observations et prévisions météorologiques.

Pour changer de carte: cliquez sur les boutons verts avec une croix noire pour zoomer, sur le bouton vert avec un tiret pour effectuer un zoom arrière, ou sur les flèches vertes pour les cartes adjacentes.


METAR-TAF: